Regional Weather Roundup
Issued by NWS

Home | Current Version | Previous Version | Graphics & Text | Print | Product List | Glossary On
Versions: 1 2 3 4 5 6 7 8 9 10 11 12 13 14 15 16 17 18 19 20 21 22 23 24 25 26 27 28 29 30 31 32 33 34 35 36 37 38 39 40 41 42 43 44 45 46 47 48 49 50
000
ASUS44 KMEG 200910
RWRTN
TENNESSEE HOURLY STATE WEATHER ROUNDUP
NATIONAL WEATHER SERVICE MEMPHIS TN
400 AM CDT MON OCT 20 2014

TNZ002-004-019-021-049-052-054-088>092-201000-
WEST TENNESSEE

CITY           SKY/WX    TMP DP  RH WIND       PRES   REMARKS
MEMPHIS INTL   CLEAR     49  46  90 CALM      30.07S
NWS MEMPHIS      N/A     46 N/A N/A MISG        N/A
JACKSON        LGT RAIN  43  39  87 CALM      30.07F FOG
DYERSBURG      PTCLDY    48  37  66 CALM      30.08F
UNION CITY     CLEAR     45  45 100 CALM      30.05F
PARIS          CLEAR     43  41  93 CALM      30.07S
HUNTINGDON     PTCLDY    42  42 100 CALM      30.07F
LEXINGTON      CLOUDY    41  41 100 CALM      30.06F VSB 1/4
SAVANNAH         N/A     39  39 100 CALM      30.08S VSB 3/4
$$

TNZ008-025-027-028-033-062-065-066-201000-
NORTH MIDDLE TENNESSEE

CITY           SKY/WX    TMP DP  RH WIND       PRES   REMARKS
NASHVILLE      PTCLDY    46  44  93 CALM      30.07S
CLARKSVILLE    PTCLDY    45  44  97 CALM      30.07R
SMYRNA         CLEAR     43  43 100 CALM      30.09S FOG
COOKEVILLE     CLEAR     45  45 100 CALM      30.07R
CROSSVILLE     MOCLDY    45  41  86 CALM      30.08R
$$

TNZ061-075-076-078-094-096-097-201000-
SOUTH MIDDLE TENNESSEE

CITY           SKY/WX    TMP DP  RH WIND       PRES   REMARKS
FAYETTEVILLE   CLEAR     45  43  93 W9        30.08S
TULLAHOMA      CLEAR     41  39  93 CALM      30.09S
WINCHESTER     CLEAR     45  45 100 CALM      30.09R
MCMINNVILLE    CLEAR     43  43 100 CALM      30.08R
COLUMBIA       CLEAR    N/A N/A N/A CALM      30.06S
SHELBYVILLE    CLEAR     43  43 100 CALM      30.09S
$$

TNZ017-018-042-046-047-201000-
NORTHEAST TENNESSEE

CITY           SKY/WX    TMP DP  RH WIND       PRES   REMARKS
TRI CITIES     CLOUDY    39  38  96 CALM      30.10S
ELIZABETHTON   SUNNY     39  37  93 CALM      30.10S
$$

TNZ012-013-036-069-073-074-201000-
CENTRAL EAST TENNESSEE

CITY           SKY/WX    TMP DP  RH WIND       PRES   REMARKS
KNOXVILLE      CLOUDY    47  45  93 CALM      30.08S
OAK RIDGE      CLOUDY    46  43  89 VRB3      30.10F
GATLINBURG     SUNNY     43  43 100 CALM      30.09S
MORRISTOWN     SUNNY     45  43  93 CALM      30.09S
$$

TNZ083-085-099-201000-
SOUTHEAST TENNESSEE

CITY           SKY/WX    TMP DP  RH WIND       PRES   REMARKS
CHATTANOOGA    CLEAR     47  44  90 CALM      30.09F
$$

SKY/WX REPORTED AS FAIR MEANS FEW OR NO CLOUDS BELOW
12 THOUSAND FEET.



USA.gov is the U.S. government's official web portal to all federal, state and local government web resources and services.